RH
94 91 92 91 90 86 85 85 82 82 84 72 42 64 56 48 49 45 53 60 56 50 32 22 19 17 21 24 36 37 35 23 18 17 17 19 34 22 25 29 19 20 31 33 45
92 89 90 88 84 78 83 81 80 80 83 68 42 38 46 38 26 36 56 56 54 46 26 26 23 20 16 21 27 41 28 20 27 33 32 29 38 34 34 30 24 23 29 30 33
78 77 76 72 68 50 68 72 76 72 69 54 58 42 46 44 24 29 53 49 50 36 26 25 24 22 20 21 22 23 33 23 22 26 27 32 28 26 30 33 28 26 30 33 34
48 40 45 27 24 30 63 74 55 44 52 51 40 39 32 40 29 30 43 43 36 31 26 24 23 28 29 24 22 30 16 16 18 17 21 24 22 23 20 22 22 24 28 30 34
58 47 49 56 37 18 38 38 29 34 44 43 33 30 34 21 30 34 37 30 27 28 27 27 27 30 34 29 30 32 26 26 24 26 28 28 32 31 28 19 15 15 18 26 31
86 55 34 22 17 14 18 20 27 32 34 29 26 25 21 29 32 30 29 26 28 34 30 30 29 28 36 37 39 31 36 37 34 34 33 38 36 31 26 21 20 18 15 14 21
90 67 32 17 15 14 18 22 27 32 30 33 29 31 21 28 30 28 28 28 38 39 36 33 33 36 33 40 36 42 50 40 33 30 32 32 40 34 22 19 21 21 19 16 15
81 54 29 20 15 14 18 26 29 26 28 32 26 25 26 27 28 27 26 27 37 42 42 41 39 39 43 37 42 44 42 52 31 30 29 35 48 27 20 21 22 21 19 18 14
47 29 24 22 16 14 18 23 26 30 24 26 24 18 18 21 25 30 25 29 38 42 45 45 43 46 47 50 53 44 49 43 37 27 33 39 45 30 25 26 28 27 24 22 18
53 30 23 25 19 15 22 22 21 27 26 24 19 20 18 24 30 31 24 30 38 36 41 41 46 51 47 45 62 61 60 53 51 37 36 44 45 31 25 27 29 27 26 27 28
64 44 23 27 21 18 34 29 23 19 26 30 29 24 22 27 32 20 27 28 33 33 38 40 54 44 42 45 50 58 73 77 56 34 39 41 39 34 31 34 34 30 29 32 31
69 58 23 28 22 30 31 37 59 62 24 22 25 20 29 30 26 22 28 36 39 33 29 43 49 42 42 45 51 56 68 66 40 36 51 52 50 42 39 40 39 39 33 34 30
79 69 30 28 24 35 43 62 74 68 30 18 22 23 27 31 29 28 32 36 45 34 38 46 43 42 42 46 58 60 64 53 56 61 53 62 61 64 49 55 49 39 34 37 36
84 78 33 24 38 37 43 64 80 72 44 20 18 24 25 25 35 26 32 42 37 38 45 46 43 42 46 53 52 84 43 54 71 92 84 94 83 73 60 86 65 74 58 38 48
88 82 32 28 35 31 50 71 82 65 86 20 23 25 25 29 31 26 32 37 50 46 46 36 42 48 68 75 55 68 54 63 75 93 91 96 92 76 60 78 92 98 90 93 99
92 87 33 45 41 53 68 80 65 76 60 24 26 32 28 26 30 29 42 38 38 49 35 36 31 45 94 64 43 48 62 58 60 81 94 88 85 84 90 98 95 97 96 96 96
98 91 39 40 40 49 78 53 83 85 20 29 34 35 33 36 41 36 61 79 79 74 59 42 34 29 34 54 46 63 67 71 64 75 86 70 67 93 95 97 97 97 98 99 99
99 91 44 40 36 42 48 50 86 28 36 30 38 36 37 46 36 40 43 54 60 65 70 65 52 35 32 49 75 78 87 93 86 68 63 56 82 92 100 98 98 98 98 98 99
92 70 49 53 28 43 38 98 39 54 37 40 37 33 31 38 46 48 67 62 56 71 84 80 43 30 34 37 51 65 75 69 90 57 90 63 67 91 84 91 96 96 96 97 98
97 66 45 35 20 39 67 54 34 37 43 48 48 40 36 46 55 69 76 61 60 70 63 72 86 35 37 38 45 51 46 75 72 82 74 72 78 88 84 91 91 94 96 97 97
88 65 44 23 32 38 97 38 35 39 45 58 53 51 42 72 86 81 79 59 58 57 71 72 77 50 41 57 59 65 74 71 76 89 88 75 82 92 92 92 94 96 97 97 98
71 82 52 18 61 66 54 43 42 41 47 54 56 52 56 58 84 80 84 70 58 55 82 65 78 81 45 38 46 60 62 72 83 82 83 84 84 63 92 90 89 93 95 98 98
80 71 45 43 96 80 42 40 44 43 43 52 53 52 54 62 82 59 51 52 58 60 78 69 84 81 64 62 44 65 55 60 71 87 88 90 79 51 64 89 88 92 91 96 98
80 98 65 56 56 48 51 42 47 47 44 46 52 51 56 55 51 70 51 47 49 59 63 62 74 83 68 69 62 73 72 64 79 85 89 85 76 64 69 83 84 88 88 90 93
76 89 70 98 83 52 61 52 42 51 48 46 54 54 66 82 72 67 54 53 52 62 63 71 85 67 63 56 54 58 77 73 86 66 85 79 84 68 70 88 92 88 88 90 88
90 85 69 66 53 61 75 76 43 50 60 52 70 40 52 82 60 70 63 57 64 66 88 82 75 67 71 56 64 72 57 63 76 73 62 65 68 53 52 46 68 83 85 90 91
86 74 81 86 73 77 76 60 45 49 49 53 54 56 64 64 49 48 54 59 63 87 86 86 83 77 72 53 82 83 80 79 72 74 68 73 65 52 57 55 75 88 85 90 92
Wind_Speed
19 19 20 20 20 20 20 20 20 17 13 9 6 4 8 11 11 14 17 14 18 18 18 16 13 12 3 2 4 3 6 11 14 16 13 2 6 7 8 13 12 6 9 9 13
20 20 21 21 20 20 21 22 20 16 13 9 8 2 8 5 6 21 14 16 16 16 16 17 15 14 2 2 2 6 9 10 7 9 9 12 7 14 12 13 9 11 8 7 16
21 22 22 22 22 22 23 23 19 12 11 9 7 4 11 3 1 10 18 18 16 14 13 11 12 7 5 3 1 3 9 12 11 11 12 15 18 17 18 19 17 15 9 12 19
23 24 24 23 21 23 23 22 14 9 10 9 7 7 6 4 3 12 16 17 18 15 12 11 9 8 5 4 2 8 10 9 11 11 14 16 17 18 19 21 20 22 17 18 17
24 25 25 23 22 24 25 19 10 8 7 7 3 3 3 6 7 13 16 18 18 15 10 8 8 7 5 8 9 12 13 10 11 13 14 17 20 21 22 20 21 23 24 20 18
24 25 27 24 22 25 26 13 9 8 7 12 11 6 2 8 8 14 18 23 17 13 9 7 6 7 8 7 7 10 12 16 18 19 18 19 22 20 20 19 20 20 23 24 22
25 25 27 25 21 26 24 9 7 7 5 4 7 4 16 8 8 17 19 20 12 9 7 6 6 6 6 9 5 10 16 17 18 12 11 11 19 23 24 19 18 21 21 22 23
25 27 27 26 21 26 21 7 3 6 5 3 4 3 5 6 11 19 24 20 11 8 4 4 4 6 5 8 12 14 14 9 2 8 12 6 22 18 14 13 17 18 19 19 22
27 28 28 26 19 25 15 9 6 1 5 7 3 4 4 6 20 15 22 19 11 5 2 1 3 3 3 7 10 6 11 19 20 15 11 13 22 17 16 18 18 18 18 18 20
28 30 28 25 18 24 10 1 8 9 3 2 10 3 6 13 13 12 24 12 6 5 6 2 3 5 5 6 11 14 19 20 21 17 16 18 27 27 23 22 23 23 22 20 18
27 30 28 26 16 22 14 4 3 2 17 7 6 5 8 18 4 21 30 12 7 6 7 2 6 6 10 10 12 15 16 19 24 19 17 19 24 25 22 21 21 20 20 19 18
26 30 27 24 12 21 13 6 4 3 6 7 4 6 6 16 9 21 30 10 8 9 10 5 1 6 10 10 12 14 17 19 19 13 18 20 25 25 20 20 21 22 17 19 18
25 29 28 21 7 11 17 9 3 1 2 4 4 5 7 9 8 17 20 12 9 11 10 6 7 9 12 13 13 16 17 17 19 20 22 15 16 5 8 16 16 14 16 16 17
25 29 27 15 3 8 6 9 2 1 3 7 6 5 7 5 2 13 18 6 6 9 10 4 7 10 14 12 14 13 10 17 20 13 8 4 6 4 12 10 19 20 16 13 12
23 27 23 13 5 5 8 4 1 3 1 7 4 5 6 8 10 16 14 5 7 13 5 8 9 13 11 6 14 10 21 21 19 14 11 2 5 7 13 14 19 14 10 11 10
21 24 18 7 4 7 4 1 2 1 4 3 4 9 8 9 5 12 10 14 1 7 7 9 8 4 4 15 16 13 19 22 6 4 4 7 4 11 11 18 15 14 14 12 12
19 22 11 6 7 9 1 3 1 4 2 7 5 9 8 10 6 11 5 12 11 10 12 15 2 5 8 16 10 19 16 5 4 2 4 6 4 8 12 16 13 16 14 13 14
19 20 10 5 12 7 3 2 6 2 3 3 5 9 5 10 5 12 9 9 13 12 9 8 3 11 14 10 9 14 8 6 7 8 10 7 7 5 7 11 15 14 12 15 15
18 8 4 7 14 5 4 5 3 2 3 7 6 4 2 4 6 9 5 7 8 11 7 7 5 12 10 11 8 9 11 10 6 11 5 3 4 6 16 17 10 14 17 16 15
9 6 2 13 12 4 3 3 2 2 2 2 4 4 5 9 8 8 7 3 6 6 4 5 8 8 12 8 3 8 10 4 4 6 7 4 4 8 18 18 15 16 15 15 15
5 4 2 13 5 2 3 3 2 3 1 2 2 3 4 3 3 4 4 1 4 8 2 6 2 8 11 5 9 7 7 5 4 4 4 6 4 7 10 11 12 11 11 12 12
2 3 5 8 1 2 2 2 2 4 2 2 3 2 2 2 3 3 3 3 2 8 5 3 4 6 7 8 2 3 10 7 4 7 5 4 4 9 6 7 9 10 10 9 9
1 2 5 4 2 1 2 2 2 4 3 2 3 4 1 2 3 4 3 1 2 5 5 6 1 7 1 3 3 4 9 13 10 4 4 5 4 11 11 11 10 10 9 8 8
1 2 1 4 1 1 2 2 3 2 2 3 3 3 3 4 5 4 5 1 3 2 3 3 3 6 6 9 11 10 16 13 8 4 8 4 9 13 12 9 10 10 8 7 7
1 2 1 2 2 3 1 3 4 3 4 5 3 9 5 2 2 4 4 7 1 1 4 3 4 5 15 19 16 14 12 9 6 6 4 6 7 9 10 8 6 7 7 7 8
2 2 1 2 2 3 2 6 7 4 6 5 6 2 8 5 3 3 2 3 4 1 1 1 3 9 5 2 3 10 14 8 6 6 7 5 3 5 7 5 7 4 6 6 7
2 0 1 4 3 3 4 4 7 7 6 3 7 4 7 12 10 9 7 8 8 4 2 2 5 6 4 4 7 4 1 2 4 4 4 5 5 6 7 8 8 5 5 7 7
Wind_Direction
12 8 5 2 360 357 354 351 349 350 354 354 36 94 109 82 59 52 41 9 358 349 345 351 359 350 307 270 284 286 251 257 263 272 278 136 331 302 337 287 275 297 307 3 357
11 8 4 1 359 356 353 349 348 351 349 354 346 180 158 90 67 50 12 356 351 350 356 358 355 347 311 296 240 251 250 277 15 336 312 309 300 302 305 301 262 285 210 344 338
11 8 4 1 359 358 354 350 348 357 2 356 354 349 205 300 229 25 1 360 350 345 341 338 338 337 310 319 8 299 265 308 320 306 302 294 290 278 281 270 267 272 309 317 321
13 10 6 4 2 359 353 349 354 8 9 12 39 63 132 249 16 5 352 345 345 339 328 330 337 342 311 313 351 280 264 288 303 298 293 286 294 285 277 273 282 287 291 291 297
10 6 3 0 360 360 355 356 13 16 24 33 56 36 327 65 29 351 348 340 333 329 321 328 317 332 306 315 304 267 286 306 301 291 284 288 278 275 270 272 265 266 269 267 271
7 3 2 2 3 1 358 8 18 28 73 70 62 14 269 73 350 354 348 339 336 333 317 287 298 325 289 285 281 321 303 293 289 283 281 280 278 276 268 262 261 260 264 264 258
5 2 0 3 5 2 359 15 40 48 128 51 26 359 59 46 351 347 349 345 341 338 318 319 284 258 338 283 319 285 288 289 278 290 261 294 274 257 267 270 271 271 262 263 260
5 3 1 2 5 2 359 17 60 46 21 297 7 334 64 22 2 353 348 350 342 333 311 318 254 269 271 308 278 271 268 278 194 245 280 250 270 284 306 302 279 266 264 263 261
7 4 1 1 5 3 2 63 30 35 48 38 360 315 56 331 350 344 351 335 328 353 10 350 240 297 239 280 298 197 302 304 303 308 261 234 280 287 290 288 275 269 269 267 258
7 6 0 359 3 5 10 117 30 29 342 351 31 156 56 350 337 321 350 339 327 320 239 267 258 259 244 296 311 313 307 305 301 306 291 272 271 281 284 279 272 268 262 261 261
4 5 360 357 3 9 8 273 233 162 40 45 43 34 340 347 314 1 352 335 319 242 347 9 271 2 344 331 314 303 298 293 294 299 286 283 283 283 287 285 271 262 260 255 252
1 3 360 354 5 22 30 53 50 355 86 46 62 15 353 341 335 360 355 12 340 340 341 232 285 1 324 311 310 304 289 285 295 322 319 295 287 287 295 294 264 263 256 250 248
358 359 358 352 19 15 46 38 352 349 259 58 38 349 350 338 11 360 4 330 339 337 350 304 348 333 323 315 323 312 295 299 309 319 296 297 289 13 343 9 351 288 245 254 242
355 356 356 360 34 351 34 345 349 321 203 16 4 41 345 336 208 18 7 359 341 330 333 297 326 320 323 315 341 312 319 317 308 316 308 18 298 40 358 358 354 341 301 229 246
349 353 355 19 340 14 317 334 231 252 194 11 11 318 356 32 336 12 12 357 346 330 311 4 332 330 317 316 325 280 306 301 289 284 283 25 260 22 12 348 344 334 352 33 21
341 348 357 357 352 345 332 184 226 223 35 33 353 353 357 26 23 350 21 8 283 322 292 317 287 291 251 301 309 325 309 305 281 253 233 345 313 46 11 340 338 346 16 20 44
333 341 349 360 335 329 302 224 22 57 119 0 339 339 331 354 356 3 48 49 36 347 357 327 327 347 344 333 335 351 339 321 317 310 4 346 15 55 0 3 354 358 11 18 31
327 331 323 318 344 339 268 256 59 41 1 7 327 316 6 3 15 359 357 23 33 7 305 344 319 14 343 348 309 311 351 338 316 342 326 59 11 61 24 15 5 360 24 29 37
326 321 306 316 342 334 282 45 14 42 346 329 299 301 36 33 342 348 56 17 29 19 359 340 288 337 339 329 344 339 351 309 272 269 258 8 81 132 6 13 19 13 23 27 30
326 310 284 335 340 285 44 97 47 60 353 316 346 360 329 354 343 3 2 25 1 49 0 355 292 310 332 310 359 330 358 338 318 329 324 48 48 7 350 353 10 21 15 20 23
314 296 3 348 3 33 72 58 102 104 39 329 321 304 313 328 340 317 325 226 15 352 314 310 251 305 304 27 353 357 12 352 276 306 321 325 56 16 353 359 3 17 15 17 27
301 301 351 358 355 18 52 124 68 155 172 229 277 272 278 319 269 274 284 268 2 338 328 355 299 288 292 339 28 342 19 358 336 341 322 271 45 5 28 8 24 26 23 26 29
273 281 6 354 79 77 145 161 214 180 212 205 243 234 241 260 285 236 293 168 259 338 2 348 169 303 184 171 180 4 340 347 326 239 7 329 26 31 39 17 26 19 16 31 35
220 284 87 50 2 175 191 203 196 195 231 226 260 235 247 262 220 292 288 319 330 300 17 297 266 261 282 308 310 300 316 332 332 300 336 31 318 7 23 28 5 13 21 28 45
258 252 21 246 178 130 44 209 185 203 217 211 238 229 196 257 267 239 285 301 199 88 341 341 270 281 279 284 282 279 290 305 320 341 326 355 339 352 9 24 358 342 14 27 35
209 173 158 131 126 140 157 217 206 164 178 211 224 243 207 222 247 297 335 275 288 115 325 311 277 322 291 293 277 294 291 286 278 294 279 307 348 353 355 25 95 26 0 29 41
177 116 218 150 165 185 215 213 205 162 203 225 220 218 228 247 274 288 263 258 268 283 293 290 328 335 280 324 318 247 245 268 296 256 311 312 18 351 356 2 14 43 29 10 15